Home   Weather   São Tomé   Past weeks

Flag for Sao Tome and Principe Past Weather in São Tomé, Sao Tome and Principe — Yesterday and Last 2 Weeks

Now
79 °F

Passing clouds.


Feels Like: 82 °F
Forecast: 78 / 85 °F
Wind: 9 mph from South

Location: S. Tome

Current Time: Apr 27, 2017 at 5:16:36 am

Latest Report: Apr 27, 2017 at 4:00 am


Visibility: N/A

Pressure: 29.83 "Hg

Humidity: 84%

Dew Point: 73 °F

Location of São ToméLocation

Past Weather in São Tomé — Graph

°F

São Tomé Temperature Yesterday

Maximum temperature yesterday: 88 °F (at 1:00 pm)
Minimum temperature yesterday: 77 °F (at 4:00 am)
Average temperature yesterday: 82 °F

High & Low Weather Summary for the Past Weeks

 TemperatureHumidityPressure
High90 °F (Apr 16, 2:00 pm)100% (Apr 20, 10:00 pm)29.95 "Hg (Apr 20, 10:00 pm)
Low73 °F (Apr 25, 6:00 pm)66% (Apr 19, 12:00 pm)29.74 "Hg (Apr 18, 3:00 pm)
Average82 °F84%29.84 "Hg
* Reported Apr 14 12:00 pm — Apr 27 12:00 am, São Tomé, Weather by CustomWeather, © 2017

Note: Actual official high and low records may vary slightly from our data, if they occured in-between our weather recording intervals... More about our weather records

Advertising

São Tomé Weather History for the Previous 24 Hours

Scroll right to see more
 ConditionsComfort  
Time TempWeatherWind HumidityBarometerVisibility
12:00 am
Thu, Apr 27
81 °FPassing clouds.14 mph84%29.89 "HgN/A
11:00 pm
Wed, Apr 26
82 °FPassing clouds.14 mph79%29.89 "HgN/A
10:00 pm82 °FPassing clouds.9 mph79%29.89 "HgN/A
9:00 pm82 °FPassing clouds.14 mph84%29.89 "HgN/A
8:00 pm82 °FPassing clouds.14 mph84%29.86 "HgN/A
7:00 pm84 °FPassing clouds.14 mph79%29.86 "HgN/A
5:00 pm86 °FScattered clouds.12 mph75%29.83 "HgN/A
4:00 pm86 °FPartly sunny.12 mph75%29.83 "HgN/A
3:00 pm86 °FScattered clouds.14 mph75%29.80 "HgN/A
2:00 pm88 °FScattered clouds.21 mph84%29.83 "HgN/A
1:00 pm88 °FScattered clouds.18 mph75%29.83 "HgN/A
10:00 am86 °FBroken clouds.16 mph94%29.89 "HgN/A
9:00 am82 °FPartly sunny.16 mph79%29.89 "HgN/A
8:00 am79 °FPartly sunny.16 mph89%29.89 "HgN/A
7:00 am77 °FPartly sunny.14 mph94%29.86 "HgN/A
6:00 am77 °FPartly sunny.16 mph94%29.86 "HgN/A
Weather by CustomWeather, © 2017

See weather overviewHow to use our weather pages